Orbital Elements at Epoch 2459000.5 (2020-May-31.0) TDB
Reference: JPL 9 (heliocentric ecliptic J2000)
Element | Value | Uncertainty (1-sigma) | Units |
e | .2284282949127381 | 4.1386e-05 | |
a | 52.46715712511975 | 0.0019221 | au |
q | 40.48217388410993 | 0.0018409 | au |
i | 10.272581175488 | 6.587e-05 | deg |
node | 27.57862744571501 | 0.00023097 | deg |
peri | 329.814388069543 | 0.0084115 | deg |
M | 268.9219545397343 | 0.013487 | deg |
tp | 2494119.401889307410 (2116-Jul-25.90188931) | 3.5641 | TDB |
period | 138812.8677581942 380.05 | 7.6281 0.02088 | d yr |
n | .002593419513723353 | 1.4251e-07 | deg/d |
Q | 64.45214036612957 | 0.0023612 | au |
|
| | Orbit Determination Parameters
Additional Information
|